Regional Weather Roundup
Issued by NWS

Home | Current Version | Previous Version | Graphics & Text | Print | Product List | Glossary On
Versions: 1 2 3 4 5 6 7 8 9 10 11 12 13 14 15 16 17 18 19 20 21 22 23 24 25 26 27 28 29 30 31 32 33 34 35 36 37 38 39 40 41 42 43 44 45 46 47 48 49 50
000
ASUS45 KSLC 180510
RWRUT

UTAH REGIONAL WEATHER ROUNDUP
NATIONAL WEATHER SERVICE SALT LAKE CITY UT
1100 PM MDT TUE OCT 17 2017

UTZ001>011-023>025-180600-

NORTHERN UTAH

CITY           SKY/WX    TMP DP  RH WIND       PRES   REMARKS
BRIGHAM CITY   PTCLDY    42  30  64 E5        30.15R
HILL AFB       PTCLDY    51  29  43 CALM      30.16R
LOGAN          CLEAR     44  27  51 CALM      30.15R
OGDEN          PTCLDY    46  34  62 SE6       30.15R
SALT LAKE CITY MOCLDY    51  34  52 S3        30.14R
TOOELE VALLEY  MOCLDY    39  32  75 S6        30.15S WCI  35
WENDOVER       MOCLDY    45  23  42 CALM      30.15R
WEST JORDAN    MOCLDY    45  31  56 CALM      30.16R

$$

UTZ011>015-024>027-180600-

CENTRAL/NORTHEAST UTAH

CITY           SKY/WX    TMP DP  RH WIND       PRES   REMARKS
PROVO AIRPORT  PTCLDY    46  32  58 CALM      30.15R
MOAB/CANYONLAN PTCLDY    47  11  23 CALM      30.17R
DELTA          CLOUDY    45  23  42 NE7       30.14R
PRICE          PTCLDY    44   6  21 N10       30.23S
RICHFIELD      CLEAR     41  28  60 CALM      30.22R
ROOSEVELT      CLOUDY    37  25  60 SW6       30.22R WCI  33
VERNAL         CLOUDY    44  19  36 W3        30.19R

$$

UTZ013>016-019>022-027-180600-

SOUTHERN UTAH

CITY           SKY/WX    TMP DP  RH WIND       PRES   REMARKS
BRYCE CANYON   PTCLDY    35  15  44 CALM      30.34R
CEDAR CITY     PTCLDY    51  23  33 SE7       30.20S
MILFORD        CLOUDY    55  19  24 S8        30.16R
ST GEORGE      PTCLDY    66  19  16 CALM      30.07R
HANKSVILLE     MOCLDY    45  12  26 CALM      30.20S
KANAB          CLEAR     54  23  30 CALM      30.23R
BLANDING         N/A     42  11  28 N7        30.31S

$$

REGIONAL REPORTS     COLORADO/ARIZONA

CITY           SKY/WX    TMP DP  RH WIND       PRES   REMARKS
CRAIG, CO      CLOUDY    33  20  58 CALM      30.24R
GRAND JUNCTION CLOUDY    49  14  24 SE5       30.20R
RIFLE, CO      CLOUDY    42  19  39 CALM      30.25R
MONTROSE, CO   CLOUDY    43  16  33 S9        30.27R
CORTEZ, CO     CLOUDY    35  13  40 E3        30.27R
COLORADO CITY    N/A     45  21  39 SE3       30.21S
PAGE, AZ       CLEAR     58  21  24 CALM      30.14R
GRAND CANYON   PTCLDY    40  18  41 CALM      30.30S
KINGMAN, AZ    PTCLDY    63  30  28 E3        30.09R
FLAGSTAFF, AZ  CLEAR     42  21  43 CALM      30.33R

$$

REGIONAL REPORTS    NEVADA/IDAHO/WYOMING

CITY           SKY/WX    TMP DP  RH WIND       PRES   REMARKS
LAS VEGAS, NV  MOCLDY    71  23  16 W7        30.01R
ELY, NY        CLOUDY    42   0  17 S8        30.24S
ELKO, NV       PTCLDY    38  17  42 CALM      30.20R
POCATELLO, ID  CLOUDY    46  25  43 SW5       30.14R
BURLEY, ID     PTCLDY    44  26  49 S5        30.12R
FORT BRIDGER,    N/A     51   3  14 SW9       30.26S
EVANSTON, WY   CLOUDY    52   7  16 W5        30.25R
ROCK SPRINGS,  CLOUDY    48   3  15 S10       30.20S
KEMMERER, WY   CLOUDY    43   7  22 N3        30.24F

$$



USA.gov is the U.S. government's official web portal to all federal, state and local government web resources and services.